Regional Weather Roundup
Issued by NWS Northern Indiana

Current Version | Previous Version | Text Only | Print | Product List | Glossary On
Versions: 1 2 3 4 5 6 7 8 9 10 11 12 13 14 15 16 17 18 19 20 21 22 23 24 25 26 27 28 29 30 31 32 33 34 35 36 37 38 39 40 41 42 43 44 45 46 47 48 49 50
285
ASUS43 KIWX 291110
RWRIWX

KIWX WEATHER ROUNDUP
NATIONAL WEATHER SERVICE NORTHERN INDIANA
700 AM EDT THU JUN 29 2017

NOTE: "FAIR" INDICATES FEW OR NO CLOUDS BELOW 12,000 FEET WITH NO
SIGNIFICANT WEATHER AND/OR OBSTRUCTIONS TO VISIBILITY.

* THESE STATIONS ARE NOT UNDER NWS QUALITY CONTROL. THEY ALSO MAY NOT
  REPORT WEATHER SUCH AS PRECIPITATION OR FOG.

INZ001>027-291200-
NORTHERN INDIANA

CITY           SKY/WX    TMP DP  RH WIND       PRES   REMARKS
GARY*          MOCLDY    75  63  64 S10       29.78R
VALPARAISO     CLOUDY    75  64  68 SW10G18   29.80F
MICHIGAN CITY* CLOUDY    72  63  73 S13G20    29.79R
LAPORTE*       MOCLDY    73  64  72 SW14G20   29.80S
KNOX*          MOCLDY    72  54  53 SW8       29.82R
SOUTH BEND     CLOUDY    72  63  73 S15G24    29.79F
ELKHART*       CLOUDY    72  61  68 S12G17    29.81
GOSHEN         PTCLDY    72  60  66 SW10      29.83R
MONTICELLO*    CLOUDY    74  62  67 S20       29.80F
LOGANSPORT*    CLOUDY    72  61  68 S22G29    29.82F
ROCHESTER*     CLOUDY    73  63  68 S14G24    29.80F
WARSAW*        CLOUDY    70  59  68 S7G16     29.83F
AUBURN*        CLOUDY    70  57  64 SW6       29.87S
FORT WAYNE     CLOUDY    72  59  63 SW20G26   29.87F
HUNTINGTON*    CLOUDY    70  59  69 S13G23    29.86F
PERU/GRISSOM   CLOUDY    71  62  74 S16       29.84F
MARION*        PTCLDY    68  57  68 S16       29.91S HAZE

$$
INZ028>050-291200-
CENTRAL INDIANA

CITY           SKY/WX    TMP DP  RH WIND       PRES   REMARKS
LAFAYETTE      CLOUDY    73  64  73 S16G26    29.80F
KOKOMO*        CLOUDY    72  62  71 S17G24    29.88F
MUNCIE*        CLEAR     73  59  61 SW14G22   29.93S
INDIANAPOLIS   MOCLDY    69  60  73 S12       29.94S

$$
MIZ043>046-050>051-056>058-064>065-071>073-077>080-291200-
SOUTHWEST LOWER MICHIGAN

CITY           SKY/WX    TMP DP  RH WIND       PRES   REMARKS
BATTLE CREEK   MOCLDY    66  61  84 S14       29.79F
BENTON HARBOR  CLOUDY    68  63  84 S7        29.76R
COLDWATER*     PTCLDY    66  59  77 S10G16    29.82F
HILLSDALE*     CLOUDY    63  55  77 S8        29.84F
HOLLAND        CLOUDY    67  63  87 S12       29.75R
GRAND RAPIDS   CLOUDY    66  63  90 S15       29.75S
KALAMAZOO      MOCLDY    66  60  81 S8        29.79F
STURGIS*       MOCLDY    68  61  77 S10G16    29.82R
THREE RIVERS*  FAIR      68  61  78 SW12      29.80F

$$
OHZ001>008-015>018-024>025-291200-
NORTHWEST OHIO

CITY           SKY/WX    TMP DP  RH WIND       PRES   REMARKS
WAUSEON*       FAIR      68  55  64 S13       29.87F
DEFIANCE       MOCLDY    68  56  65 S14       29.87F
FINDLAY        MOCLDY    71  55  56 S18G30    29.92F
TOLEDO EXPRESS CLOUDY    69  57  65 S9        29.87F
TOLEDO METCALF CLOUDY    73  58  59 S15       29.90F
LIMA           CLOUDY    69  57  65 S14G21    29.94F

$$
AND FOR LAKE MICHIGAN COASTAL AND OPEN LAKE BUOY OBSERVATIONS

STATION/POSITION TEMP    WIND        PRES    VSBY  WAVE
                 AIR SEA DIR/SP/G                  HT/PER
                 (F)     (DEG/KT/KT) (MB)    (MI)  (FT/S)
CALUMET HARBOR    74     210/  8/ 12 1007.6R
MICHIGAN CITY     74     180/ 19/ 22   N/A
BURNS HARBOR      74     200/ 19/ 22 1008.5F
SOUTH LAKE BUOY   65 60  160/ 17/ 27 1005.5          3/ 4
4 MI NW BRIDGMAN  72 67  210/ 16/ 21 1007.6          2/ 2
MICHIGAN CITY     72 65  210/ 16/ 19   N/A           2/ 3

$$
&&




USA.gov is the U.S. government's official web portal to all federal, state and local government web resources and services.